Tracking 35274 objects as of 10-Sep-2026
HD Live streaming from Space Station
objects crossing your sky now

ISTANBUL


ISTANBUL is no longer on orbit
ISTANBUL is classified as:


NORAD ID: 56230
Int'l Code: 2023-084BP
Launch date: June 12, 2023
Source: Turkey (TURK)
Launch site: AIR FORCE WESTERN TEST RANGE (AFWTR)
Decay date: 2024-04-09

Uplink (MHz):
Downlink (MHz): 401.820
Beacon (MHz):
Mode: 9k6_FSK
Call sign:
Status: Reentered

Your satellite tracking list
Your tracking list is empty




NASA's NSSDC Master Catalog

Two Line Element Set (TLE):
1 56230U 23084BP  24092.50263033  .20450391  26188-5  10926-2 0  9996
2 56230  97.4858 218.0067 0017239 279.0361  80.8987 16.40596265 44937
Source of the keplerian elements: AFSPC